Probability
5 5 6 8 7 6 5 5 5 4 4 3 3 3 2 2 4 8 12 16 18 16 15 16 15 14 13 11 10 9 9 8 7 6 7 6 5 2 1 1 0 0 0
10 8 8 7 6 5 4 4 4 5 5 4 4 3 2 2 4 8 10 12 13 14 14 16 15 14 13 12 11 10 9 9 7 6 7 8 7 5 3 2 1 0 0
16 14 11 8 6 5 5 4 5 6 7 7 7 7 6 5 6 9 9 8 9 11 11 13 14 14 15 14 13 11 10 9 7 7 7 8 8 6 4 3 2 1 0
18 16 13 9 7 6 6 6 7 8 8 8 8 10 10 9 8 9 10 8 8 9 9 9 11 12 14 14 13 12 11 9 8 8 8 8 8 7 5 3 3 1 1
18 15 13 11 9 7 6 6 7 8 8 7 7 8 10 11 9 9 8 7 8 9 10 9 9 10 11 12 12 11 10 11 10 10 9 9 9 8 6 4 3 3 2
18 15 13 14 12 9 8 7 7 8 8 7 5 5 8 10 11 10 8 6 7 9 12 12 10 9 10 11 11 10 10 11 11 11 10 10 9 8 6 4 3 3 3
19 17 16 16 15 13 11 10 10 9 8 7 5 4 5 9 11 10 9 7 6 8 11 12 12 11 11 10 10 10 10 10 11 11 11 10 9 7 5 3 2 3 3
22 20 19 17 15 15 14 13 13 12 8 5 4 3 4 6 7 7 7 6 5 6 9 11 12 12 11 10 9 9 9 9 9 10 12 10 7 5 3 2 2 3 4
24 23 21 18 15 14 14 13 14 12 8 4 4 4 4 4 4 4 4 4 4 6 9 10 10 11 12 12 9 7 6 7 7 9 10 9 5 3 3 3 3 4 4
27 25 23 20 16 14 13 12 11 11 8 6 5 5 5 5 5 4 4 4 4 5 8 9 8 9 12 13 10 6 5 4 5 6 7 6 3 2 2 2 2 3 3
29 29 27 23 20 16 13 11 11 11 9 7 6 5 6 7 8 8 6 5 5 6 7 7 7 8 12 13 10 6 4 3 3 3 4 3 2 2 1 1 1 1 2
31 31 30 27 22 19 14 12 12 11 9 7 6 6 7 8 8 9 8 7 7 7 7 7 6 7 10 12 10 6 4 3 3 2 1 1 1 1 0 0 0 0 1
34 33 32 28 23 19 15 13 12 11 9 7 5 7 10 10 10 10 10 10 8 6 6 5 5 7 10 11 8 4 3 3 2 1 0 0 0 0 0 0 0 0 0
38 37 35 30 24 19 15 13 11 10 10 9 7 8 12 13 12 11 11 11 9 4 2 3 4 7 9 9 6 3 3 2 1 1 0 0 0 0 0 0 0 0 0
38 38 37 33 27 22 18 15 12 10 11 11 10 11 13 13 13 12 11 11 9 4 1 2 4 7 9 8 5 4 3 2 0 0 0 0 0 0 0 0 0 0 0
34 35 34 32 28 24 20 17 14 11 10 10 11 11 12 12 12 11 10 9 9 6 3 3 5 6 7 7 5 4 3 1 0 0 0 0 0 0 0 0 0 0 0
32 30 30 29 26 23 19 16 14 12 9 7 8 9 10 10 11 10 8 7 7 5 4 4 5 4 5 6 6 4 2 1 0 0 0 0 0 0 0 0 0 0 0
33 30 28 27 25 23 19 16 14 11 8 6 6 7 7 8 10 9 6 5 4 3 3 3 4 3 4 6 7 5 4 2 1 0 0 0 0 0 0 0 0 0 0
34 31 27 25 23 22 20 17 14 11 8 8 7 7 7 7 9 9 7 5 4 3 2 3 3 3 3 5 6 6 5 4 2 1 0 0 0 0 0 0 0 0 0
32 28 25 23 21 20 19 18 15 13 11 12 11 10 8 7 7 8 8 8 6 4 3 3 3 3 4 5 6 6 6 5 3 2 0 0 0 0 0 0 0 0 0
28 27 25 23 23 21 18 16 16 15 14 14 13 12 10 7 5 5 5 6 5 4 3 4 3 3 4 6 6 6 6 6 4 2 1 0 0 0 0 0 0 0 0
28 29 28 27 26 22 16 12 14 16 16 15 13 11 8 6 3 2 2 2 2 2 3 4 4 3 4 5 6 6 6 6 5 4 2 0 0 0 0 1 0 0 0
32 31 30 29 28 21 12 8 11 16 17 15 12 8 6 5 4 4 2 1 1 1 2 4 4 3 4 5 7 7 6 6 6 5 3 1 0 0 0 0 0 0 0
31 31 30 29 27 20 10 5 10 17 19 16 11 7 6 6 6 5 5 4 4 4 3 2 2 3 3 5 6 6 6 6 5 4 2 1 0 0 0 0 0 0 0
27 28 29 29 27 19 8 3 8 16 19 16 11 6 6 6 5 5 5 6 7 7 5 3 2 2 2 2 3 3 4 4 3 2 1 1 1 0 0 0 0 0 0
24 26 28 29 27 18 7 2 7 15 18 15 11 7 5 5 4 4 6 7 8 7 6 4 2 1 0 0 0 1 2 2 1 1 1 2 2 1 0 0 0 0 0
Wind_Speed
1 2 2 1 1 1 1 1 1 1 2 2 2 2 2 2 2 3 3 8 8 8 7 7 7 6 6 6 6 5 5 5 5 5 6 7 7 8 9 9 9 8 8
2 2 2 1 1 2 2 2 1 1 2 2 2 3 3 3 2 2 3 4 6 7 6 6 6 6 6 6 6 6 6 6 6 6 6 7 8 9 8 8 9 9 9
2 1 1 1 1 1 2 1 1 1 0 1 1 2 2 1 1 1 3 3 3 4 5 5 5 5 5 6 6 6 6 6 7 7 7 7 9 9 9 8 8 8 8
2 1 1 1 1 1 1 1 1 1 1 1 1 1 1 1 1 0 1 2 2 3 4 5 5 5 5 6 6 6 6 6 5 6 6 6 7 8 8 8 8 8 7
2 1 1 1 0 1 1 1 2 1 1 2 1 1 0 1 0 0 1 1 2 2 3 5 6 6 5 6 6 6 6 5 4 4 4 5 6 7 7 7 7 7 7
2 1 1 2 0 1 1 2 2 1 1 1 2 1 1 1 1 1 1 0 1 1 2 3 3 4 5 5 4 5 5 5 4 4 4 4 5 6 6 7 7 7 7
2 1 1 1 0 1 1 1 1 0 0 0 1 1 1 1 1 1 1 0 1 0 1 1 2 1 2 4 4 4 4 4 4 4 4 4 4 6 6 7 7 7 6
1 2 1 1 1 1 2 1 1 1 1 0 0 1 1 1 1 1 1 0 1 1 1 1 1 1 1 2 3 4 3 3 4 5 4 4 4 4 5 7 7 7 7
2 1 1 1 1 1 1 0 1 1 1 1 1 1 0 1 2 1 1 1 0 0 1 0 0 1 1 2 2 2 3 3 3 4 4 4 3 3 3 5 7 7 7
3 2 2 1 1 1 1 1 1 1 1 1 1 0 0 0 0 1 1 1 1 0 1 1 1 1 2 2 2 3 2 1 2 3 3 3 3 3 3 4 5 7 8
3 3 2 2 1 0 1 1 1 1 1 1 1 1 1 1 1 1 1 2 1 1 0 0 1 1 1 1 2 3 2 2 2 2 2 2 2 2 2 3 4 4 6
2 3 3 2 1 1 1 0 0 0 1 2 2 1 1 1 1 1 1 1 1 2 1 0 0 0 0 2 3 4 2 3 3 3 2 2 2 2 2 2 3 4 4
2 2 2 2 1 1 1 1 1 0 0 1 2 2 2 1 1 1 1 1 2 2 1 1 0 1 1 3 3 3 2 3 3 3 3 2 2 2 2 3 3 3 3
3 3 3 3 2 2 2 1 1 2 1 1 2 1 2 2 1 1 1 1 1 2 1 1 1 1 1 2 3 2 1 2 3 4 3 3 3 3 3 4 4 3 3
3 4 3 3 3 3 2 2 2 2 2 2 1 1 1 1 2 1 1 1 1 2 2 1 1 0 1 1 3 1 1 1 3 4 4 4 4 4 4 4 4 3 3
2 3 3 3 3 3 3 3 2 2 2 2 2 1 1 2 1 1 1 1 1 1 2 2 1 1 1 1 1 0 0 1 3 4 5 5 5 5 4 4 4 4 4
3 3 3 3 3 3 3 2 2 3 3 2 2 2 2 2 1 2 2 1 1 1 1 2 1 1 1 0 0 1 1 2 2 4 5 6 6 5 5 5 5 5 5
3 3 3 3 4 3 3 3 4 3 3 3 2 2 2 2 1 2 2 2 2 2 1 3 2 2 2 1 1 2 2 2 2 4 7 7 6 5 5 4 4 4 4
3 3 3 4 3 3 3 3 3 3 2 2 2 2 2 2 1 1 2 2 2 2 2 2 3 2 1 1 1 2 3 2 3 2 4 5 5 5 5 4 4 4 4
3 3 4 4 4 3 3 3 3 3 3 2 2 2 2 2 1 2 2 2 2 2 3 2 2 2 2 2 1 1 2 2 3 2 1 2 4 5 5 5 4 4 4
4 3 4 4 4 4 3 2 3 3 2 2 2 2 2 1 1 1 2 2 2 2 2 2 2 2 2 2 1 1 2 2 3 2 1 1 1 2 3 4 4 4 5
3 3 4 4 3 3 3 2 1 2 2 2 2 2 2 3 3 3 2 2 2 3 3 2 2 3 3 2 2 2 2 3 2 2 1 2 1 1 1 2 4 5 6
3 3 3 3 3 3 3 3 2 2 2 3 3 2 3 2 1 1 2 3 3 4 4 3 3 4 4 3 2 3 3 3 3 3 2 3 1 1 1 1 4 5 6
3 3 3 3 3 3 4 4 3 3 3 3 2 2 2 1 1 1 2 2 3 3 4 4 3 4 4 3 2 3 3 3 3 3 2 2 2 1 1 0 2 5 6
3 3 3 4 3 3 5 5 4 2 2 3 3 3 2 1 1 2 2 2 3 3 4 3 4 4 4 4 3 2 2 2 3 2 2 1 1 1 1 0 2 4 5
4 4 4 4 4 4 6 6 5 3 3 3 3 2 2 2 2 2 2 2 3 3 2 3 3 4 3 3 3 3 2 2 3 2 2 1 1 1 1 1 1 2 2
Wind_Direction
105 91 75 68 61 77 97 69 56 33 3 4 8 37 35 62 90 118 132 152 157 164 170 178 185 191 197 199 200 200 202 207 215 223 222 221 220 217 214 212 211 210 211
76 81 84 67 63 63 53 55 51 41 14 8 15 21 32 31 62 98 124 150 164 169 173 183 194 201 206 209 211 210 213 214 218 227 229 224 220 217 212 213 215 213 213
86 94 102 91 56 71 66 67 41 50 39 33 23 20 40 38 63 84 135 156 165 176 181 185 192 200 206 212 218 222 222 223 226 232 237 229 222 218 217 216 215 215 215
102 77 100 94 61 95 93 104 60 38 31 18 12 355 31 26 49 84 137 150 152 161 183 193 195 202 210 215 220 224 223 225 228 231 235 230 219 213 211 214 217 217 216
101 94 95 85 67 77 63 57 74 43 33 16 335 284 50 72 4 348 82 108 145 162 163 185 197 205 212 219 224 228 231 226 230 236 235 228 213 203 202 205 211 215 216
98 59 122 112 49 82 62 47 56 47 9 346 318 339 290 182 175 82 49 39 183 167 161 164 187 209 212 214 218 225 232 229 230 235 233 226 209 200 199 202 205 212 212
114 107 69 124 80 76 76 70 63 120 263 308 337 316 288 224 146 129 174 158 16 61 124 142 164 176 187 197 205 210 226 228 230 230 224 214 203 202 202 206 207 211 213
124 149 79 126 112 97 80 51 14 2 308 294 306 291 308 338 339 213 186 171 5 353 23 73 89 119 129 138 172 194 209 232 232 224 214 200 196 199 207 211 209 210 210
149 92 111 41 89 120 117 118 9 336 300 305 15 31 350 333 313 305 275 100 50 342 14 342 54 104 114 118 140 179 204 234 230 217 202 197 192 197 213 220 218 217 216
161 149 132 103 61 78 115 162 96 316 311 309 340 344 231 211 266 311 323 349 301 297 325 321 25 65 93 109 107 100 121 204 202 197 194 193 200 213 226 239 233 225 222
174 153 142 134 138 133 122 122 56 355 323 335 331 324 313 286 243 237 292 310 305 264 220 271 83 47 72 96 106 92 108 145 166 175 187 197 216 235 244 251 246 242 232
171 157 149 142 154 163 124 161 157 155 345 348 336 334 330 327 321 302 286 285 303 302 266 254 132 152 105 81 85 98 100 141 159 166 180 200 230 253 258 277 278 266 258
163 165 164 157 170 181 190 175 192 213 263 313 312 320 337 334 328 316 315 306 302 292 286 275 228 158 93 94 104 106 95 142 162 166 176 203 241 257 268 278 284 284 283
164 156 169 169 185 204 203 175 207 202 195 257 279 309 309 316 317 308 295 298 306 305 312 307 343 50 72 107 115 135 99 138 168 185 196 211 236 252 264 268 269 272 279
173 166 180 180 189 205 212 188 217 212 195 218 247 263 270 282 289 302 307 309 292 305 308 314 335 354 71 93 123 115 97 143 193 203 207 217 233 245 257 260 260 260 260
173 176 189 189 195 200 213 212 211 210 209 218 226 239 270 276 304 319 315 319 324 291 297 315 324 355 36 55 144 309 135 193 221 217 212 219 231 240 248 250 250 251 250
202 201 197 198 207 208 207 216 229 221 219 221 228 224 248 280 314 312 318 325 322 323 304 308 334 340 352 354 126 262 240 208 219 214 213 219 227 232 235 241 244 244 243
213 208 202 208 215 210 207 213 233 235 234 231 235 247 256 267 293 308 322 321 323 313 296 301 304 297 281 253 243 257 277 259 232 216 213 215 220 223 226 230 235 236 234
214 208 204 210 217 216 214 216 226 240 243 239 236 235 259 270 266 289 296 303 303 301 283 282 287 283 280 279 280 283 291 293 284 233 211 208 213 219 221 224 225 225 226
211 209 209 211 214 212 215 219 222 232 242 243 237 229 243 247 238 266 273 282 291 300 299 295 291 289 280 279 254 280 300 294 297 291 266 206 210 216 217 221 224 222 218
219 216 221 219 217 211 218 216 231 230 234 248 259 252 245 178 135 249 284 300 297 291 292 300 297 306 304 321 310 294 298 295 285 284 275 253 213 217 213 221 223 218 207
226 220 221 225 225 222 181 169 197 250 244 245 254 268 251 195 195 216 252 281 287 274 283 287 291 294 296 309 321 307 302 305 304 307 318 294 262 230 221 203 196 189 190
225 217 223 224 214 212 180 182 198 232 235 240 243 250 268 261 195 228 237 248 269 274 254 259 269 279 290 294 303 305 302 304 296 295 295 287 287 274 274 224 182 181 185
224 217 220 227 220 208 180 184 200 221 243 240 238 240 248 272 286 297 276 267 269 278 253 239 254 269 284 291 277 270 276 283 278 285 270 278 288 285 319 -0 194 181 183
227 222 221 226 222 206 188 186 186 228 236 238 234 241 231 204 251 258 253 264 271 276 288 274 256 263 269 285 289 296 283 286 291 299 301 278 291 309 306 274 205 194 195
225 225 226 225 224 212 188 187 192 221 231 239 223 215 215 219 222 237 257 258 263 273 298 311 300 285 269 268 256 233 256 273 285 291 299 308 288 304 306 274 215 188 210